Year,Month,Day,Hour,Minute,Value (Times are PST for temperature in C)
2017,09,28,00,00,13.50
2017,09,28,00,01,13.50
2017,09,28,00,02,13.50
2017,09,28,00,03,13.50
2017,09,28,00,04,13.50
2017,09,28,00,05,13.50
2017,09,28,00,06,13.60
2017,09,28,00,07,13.60
2017,09,28,00,08,13.60
2017,09,28,00,09,13.60
2017,09,28,00,10,13.60
2017,09,28,00,11,13.60
2017,09,28,00,12,13.50
2017,09,28,00,13,13.50
2017,09,28,00,14,13.50
2017,09,28,00,15,13.50
2017,09,28,00,16,13.50
2017,09,28,00,17,13.50
2017,09,28,00,18,13.50
2017,09,28,00,19,13.50
2017,09,28,00,20,13.50
2017,09,28,00,21,13.40
2017,09,28,00,22,13.40
2017,09,28,00,23,13.40
2017,09,28,00,24,13.40
2017,09,28,00,25,13.40
2017,09,28,00,26,13.40
2017,09,28,00,27,13.40
2017,09,28,00,28,13.40
2017,09,28,00,29,13.40
2017,09,28,00,30,13.40
2017,09,28,00,31,13.40
2017,09,28,00,32,13.40
2017,09,28,00,33,13.40
2017,09,28,00,34,13.40
2017,09,28,00,35,13.40
2017,09,28,00,36,13.40
2017,09,28,00,37,13.40
2017,09,28,00,38,13.40
2017,09,28,00,39,13.50
2017,09,28,00,40,13.50
2017,09,28,00,41,13.50
2017,09,28,00,42,13.60
2017,09,28,00,43,13.60
2017,09,28,00,44,13.60
2017,09,28,00,45,13.70
2017,09,28,00,46,13.70
2017,09,28,00,47,13.70
2017,09,28,00,48,13.70
2017,09,28,00,49,13.80
2017,09,28,00,50,13.80
2017,09,28,00,51,13.80
2017,09,28,00,52,13.80
2017,09,28,00,53,13.70
2017,09,28,00,54,13.70
2017,09,28,00,55,13.70
2017,09,28,00,56,13.70
2017,09,28,00,57,13.70
2017,09,28,00,58,13.70
2017,09,28,00,59,13.70
2017,09,28,01,00,13.70
2017,09,28,01,01,13.70
2017,09,28,01,02,13.70
2017,09,28,01,03,13.70
2017,09,28,01,04,13.60
2017,09,28,01,05,13.60
2017,09,28,01,06,13.60
2017,09,28,01,07,13.60
2017,09,28,01,08,13.60
2017,09,28,01,09,13.60
2017,09,28,01,10,13.60
2017,09,28,01,11,13.60
2017,09,28,01,12,13.70
2017,09,28,01,13,13.60
2017,09,28,01,14,13.60
2017,09,28,01,15,13.60
2017,09,28,01,16,13.70
2017,09,28,01,17,13.60
2017,09,28,01,18,13.60
2017,09,28,01,19,13.60
2017,09,28,01,20,13.60
2017,09,28,01,21,13.60
2017,09,28,01,22,13.60
2017,09,28,01,23,13.60
2017,09,28,01,24,13.60
2017,09,28,01,25,13.60
2017,09,28,01,26,13.60
2017,09,28,01,27,13.60
2017,09,28,01,28,13.60
2017,09,28,01,29,13.60
2017,09,28,01,30,13.60
2017,09,28,01,31,13.60
2017,09,28,01,32,13.60
2017,09,28,01,33,13.60
2017,09,28,01,34,13.60
2017,09,28,01,35,13.60
2017,09,28,01,36,13.60
2017,09,28,01,37,13.60
2017,09,28,01,38,13.60
2017,09,28,01,39,13.60
2017,09,28,01,40,13.60
2017,09,28,01,41,13.60
2017,09,28,01,42,13.60
2017,09,28,01,43,13.60
2017,09,28,01,44,13.60
2017,09,28,01,45,13.60
2017,09,28,01,46,13.60
2017,09,28,01,47,13.60
2017,09,28,01,48,13.60
2017,09,28,01,49,13.60
2017,09,28,01,50,13.60
2017,09,28,01,51,13.60
2017,09,28,01,52,13.60
2017,09,28,01,53,13.60
2017,09,28,01,54,13.60
2017,09,28,01,55,13.60
2017,09,28,01,56,13.60
2017,09,28,01,57,13.60
2017,09,28,01,58,13.60
2017,09,28,01,59,13.60
2017,09,28,02,00,13.60
2017,09,28,02,01,13.60
2017,09,28,02,02,13.60
2017,09,28,02,03,13.60
2017,09,28,02,04,13.60
2017,09,28,02,05,13.60
2017,09,28,02,06,13.60
2017,09,28,02,07,13.60
2017,09,28,02,08,13.60
2017,09,28,02,09,13.60
2017,09,28,02,10,13.60
2017,09,28,02,11,13.60
2017,09,28,02,12,13.60
2017,09,28,02,13,13.60
2017,09,28,02,14,13.60
2017,09,28,02,15,13.60
2017,09,28,02,16,13.60
2017,09,28,02,17,13.60
2017,09,28,02,18,13.60
2017,09,28,02,19,13.60
2017,09,28,02,20,13.60
2017,09,28,02,21,13.60
2017,09,28,02,22,13.60
2017,09,28,02,23,13.50
2017,09,28,02,24,13.50
2017,09,28,02,25,13.50
2017,09,28,02,26,13.50
2017,09,28,02,27,13.50
2017,09,28,02,28,13.50
2017,09,28,02,29,13.50
2017,09,28,02,30,13.60
2017,09,28,02,31,13.60
2017,09,28,02,32,13.60
2017,09,28,02,33,13.60
2017,09,28,02,34,13.60
2017,09,28,02,35,13.60
2017,09,28,02,36,13.60
2017,09,28,02,37,13.60
2017,09,28,02,38,13.60
2017,09,28,02,39,13.60
2017,09,28,02,40,13.60
2017,09,28,02,41,13.60
2017,09,28,02,42,13.60
2017,09,28,02,43,13.60
2017,09,28,02,44,13.60
2017,09,28,02,45,13.60
2017,09,28,02,46,13.60
2017,09,28,02,47,13.60
2017,09,28,02,48,13.60
2017,09,28,02,49,13.60
2017,09,28,02,50,13.60
2017,09,28,02,51,13.60
2017,09,28,02,52,13.60
2017,09,28,02,53,13.60
2017,09,28,02,54,13.60
2017,09,28,02,55,13.60
2017,09,28,02,56,13.60
2017,09,28,02,57,13.60
2017,09,28,02,58,13.60
2017,09,28,02,59,13.60
2017,09,28,03,00,13.60
2017,09,28,03,01,13.60
2017,09,28,03,02,13.60
2017,09,28,03,03,13.50
2017,09,28,03,04,13.60
2017,09,28,03,05,13.60
2017,09,28,03,06,13.60
2017,09,28,03,07,13.60
2017,09,28,03,08,13.60
2017,09,28,03,09,13.60
2017,09,28,03,10,13.60
2017,09,28,03,11,13.60
2017,09,28,03,12,13.60
2017,09,28,03,13,13.50
2017,09,28,03,14,13.60
2017,09,28,03,15,13.60
2017,09,28,03,16,13.60
2017,09,28,03,17,13.60
2017,09,28,03,18,13.50
2017,09,28,03,19,13.60
2017,09,28,03,20,13.50
2017,09,28,03,21,13.50
2017,09,28,03,22,13.50
2017,09,28,03,23,13.50
2017,09,28,03,24,13.50
2017,09,28,03,25,13.50
2017,09,28,03,26,13.50
2017,09,28,03,27,13.50
2017,09,28,03,28,13.50
2017,09,28,03,29,13.60
2017,09,28,03,30,13.50
2017,09,28,03,31,13.60
2017,09,28,03,32,13.60
2017,09,28,03,33,13.60
2017,09,28,03,34,13.60
2017,09,28,03,35,13.60
2017,09,28,03,36,13.60
2017,09,28,03,37,13.60
2017,09,28,03,38,13.60
2017,09,28,03,39,13.60
2017,09,28,03,40,13.60
2017,09,28,03,41,13.60
2017,09,28,03,42,13.60
2017,09,28,03,43,13.60
2017,09,28,03,44,13.60
2017,09,28,03,45,13.60
2017,09,28,03,46,13.60
2017,09,28,03,47,13.60
2017,09,28,03,48,13.60
2017,09,28,03,49,13.60
2017,09,28,03,50,13.60
2017,09,28,03,51,13.60
2017,09,28,03,52,13.60
2017,09,28,03,53,13.60
2017,09,28,03,54,13.60
2017,09,28,03,55,13.60
2017,09,28,03,56,13.60
2017,09,28,03,57,13.70
2017,09,28,03,58,13.70
2017,09,28,03,59,13.80
2017,09,28,04,00,13.80
2017,09,28,04,01,13.90
2017,09,28,04,02,14.00
2017,09,28,04,03,14.10
2017,09,28,04,04,14.20
2017,09,28,04,05,14.30
2017,09,28,04,06,14.40
2017,09,28,04,07,14.40
2017,09,28,04,08,14.50
2017,09,28,04,09,14.60
2017,09,28,04,10,14.60
2017,09,28,04,11,14.60
2017,09,28,04,12,14.70
2017,09,28,04,13,14.70
2017,09,28,04,14,14.70
2017,09,28,04,15,14.60
2017,09,28,04,16,14.60
2017,09,28,04,17,14.60
2017,09,28,04,18,14.60
2017,09,28,04,19,14.60
2017,09,28,04,20,14.60
2017,09,28,04,21,14.60
2017,09,28,04,22,14.60
2017,09,28,04,23,14.60
2017,09,28,04,24,14.60
2017,09,28,04,25,14.60
2017,09,28,04,26,14.60
2017,09,28,04,27,14.60
2017,09,28,04,28,14.60
2017,09,28,04,29,14.60
2017,09,28,04,30,14.60
2017,09,28,04,31,14.60
2017,09,28,04,32,14.60
2017,09,28,04,33,14.60
2017,09,28,04,34,14.60
2017,09,28,04,35,14.60
2017,09,28,04,36,14.50
2017,09,28,04,37,14.50
2017,09,28,04,38,14.50
2017,09,28,04,39,14.50
2017,09,28,04,40,14.50
2017,09,28,04,41,14.50
2017,09,28,04,42,14.40
2017,09,28,04,43,14.40
2017,09,28,04,44,14.40
2017,09,28,04,45,14.40
2017,09,28,04,46,14.40
2017,09,28,04,47,14.40
2017,09,28,04,48,14.30
2017,09,28,04,49,14.30
2017,09,28,04,50,14.30
2017,09,28,04,51,14.30
2017,09,28,04,52,14.30
2017,09,28,04,53,14.30
2017,09,28,04,54,14.30
2017,09,28,04,55,14.30
2017,09,28,04,56,14.20
2017,09,28,04,57,14.20
2017,09,28,04,58,14.20
2017,09,28,04,59,14.20
2017,09,28,05,00,14.10
2017,09,28,05,01,14.10
2017,09,28,05,02,14.10
2017,09,28,05,03,14.10
2017,09,28,05,04,14.10
2017,09,28,05,05,14.10
2017,09,28,05,06,14.10
2017,09,28,05,07,14.10
2017,09,28,05,08,14.10
2017,09,28,05,09,14.10
2017,09,28,05,10,14.10
2017,09,28,05,11,14.10
2017,09,28,05,12,14.10
2017,09,28,05,13,14.10
2017,09,28,05,14,14.10
2017,09,28,05,15,14.10
2017,09,28,05,16,14.10
2017,09,28,05,17,14.10
2017,09,28,05,18,14.00
2017,09,28,05,19,14.00
2017,09,28,05,20,14.00
2017,09,28,05,21,14.00
2017,09,28,05,22,13.90
2017,09,28,05,23,13.90
2017,09,28,05,24,13.90
2017,09,28,05,25,13.90
2017,09,28,05,26,13.90
2017,09,28,05,27,13.90
2017,09,28,05,28,13.90
2017,09,28,05,29,13.80
2017,09,28,05,30,13.80
2017,09,28,05,31,13.80
2017,09,28,05,32,13.80
2017,09,28,05,33,13.80
2017,09,28,05,34,13.70
2017,09,28,05,35,13.70
2017,09,28,05,36,13.70
2017,09,28,05,37,13.70
2017,09,28,05,38,13.70
2017,09,28,05,39,13.70
2017,09,28,05,40,13.70
2017,09,28,05,41,13.70
2017,09,28,05,42,13.70
2017,09,28,05,43,13.60
2017,09,28,05,44,13.60
2017,09,28,05,45,13.60
2017,09,28,05,46,13.60
2017,09,28,05,47,13.60
2017,09,28,05,48,13.60
2017,09,28,05,49,13.60
2017,09,28,05,50,13.60
2017,09,28,05,51,13.60
2017,09,28,05,52,13.70
2017,09,28,05,53,13.70
2017,09,28,05,54,13.70
2017,09,28,05,55,13.80
2017,09,28,05,56,13.80
2017,09,28,05,57,13.90
2017,09,28,05,58,13.90
2017,09,28,05,59,14.00
2017,09,28,06,00,14.20
2017,09,28,06,01,14.30
2017,09,28,06,02,14.40
2017,09,28,06,03,14.60
2017,09,28,06,04,14.70
2017,09,28,06,05,14.80
2017,09,28,06,06,14.80
2017,09,28,06,07,14.90
2017,09,28,06,08,15.00
2017,09,28,06,09,15.00
2017,09,28,06,10,15.00
2017,09,28,06,11,15.10
2017,09,28,06,12,15.10
2017,09,28,06,13,15.10
2017,09,28,06,14,15.20
2017,09,28,06,15,15.20
2017,09,28,06,16,15.30
2017,09,28,06,17,15.30
2017,09,28,06,18,15.40
2017,09,28,06,19,15.40
2017,09,28,06,20,15.50
2017,09,28,06,21,15.50
2017,09,28,06,22,15.60
2017,09,28,06,23,15.60
2017,09,28,06,24,15.60
2017,09,28,06,25,15.60
2017,09,28,06,26,15.70
2017,09,28,06,27,15.70
2017,09,28,06,28,15.70
2017,09,28,06,29,15.70
2017,09,28,06,30,15.70
2017,09,28,06,31,15.70
2017,09,28,06,32,15.70
2017,09,28,06,33,15.70
2017,09,28,06,34,15.60
2017,09,28,06,35,15.60
2017,09,28,06,36,15.60
2017,09,28,06,37,15.60
2017,09,28,06,38,15.60
2017,09,28,06,39,15.60
2017,09,28,06,40,15.60
2017,09,28,06,41,15.60
2017,09,28,06,42,15.60
2017,09,28,06,43,15.60
2017,09,28,06,44,15.60
2017,09,28,06,45,15.60
2017,09,28,06,46,15.60
2017,09,28,06,47,15.60
2017,09,28,06,48,15.60
2017,09,28,06,49,15.70
2017,09,28,06,50,15.70
2017,09,28,06,51,15.70
2017,09,28,06,52,15.70
2017,09,28,06,53,15.70
2017,09,28,06,54,15.70
2017,09,28,06,55,15.70
2017,09,28,06,56,15.70
2017,09,28,06,57,15.70
2017,09,28,06,58,15.70
2017,09,28,06,59,15.70
2017,09,28,07,00,15.70
2017,09,28,07,01,15.70
2017,09,28,07,02,15.70
2017,09,28,07,03,15.70
2017,09,28,07,04,15.60
2017,09,28,07,05,15.60
2017,09,28,07,06,15.60
2017,09,28,07,07,15.60
2017,09,28,07,08,15.60
2017,09,28,07,09,15.60
2017,09,28,07,10,15.60
2017,09,28,07,11,15.70
2017,09,28,07,12,15.70
2017,09,28,07,13,15.70
2017,09,28,07,14,15.70
2017,09,28,07,15,15.70
2017,09,28,07,16,15.70
2017,09,28,07,17,15.70
2017,09,28,07,18,15.70
2017,09,28,07,19,15.70
2017,09,28,07,20,15.70
2017,09,28,07,21,15.70
2017,09,28,07,22,15.70
2017,09,28,07,23,15.70
2017,09,28,07,24,15.60
2017,09,28,07,25,15.60
2017,09,28,07,26,15.60
2017,09,28,07,27,15.60
2017,09,28,07,28,15.60
2017,09,28,07,29,15.60
2017,09,28,07,30,15.60
2017,09,28,07,31,15.60
2017,09,28,07,32,15.60
2017,09,28,07,33,15.60
2017,09,28,07,34,15.60
2017,09,28,07,35,15.60
2017,09,28,07,36,15.70
2017,09,28,07,37,15.70
2017,09,28,07,38,15.70
2017,09,28,07,39,15.70
2017,09,28,07,40,15.70
2017,09,28,07,41,15.70
2017,09,28,07,42,15.70
2017,09,28,07,43,15.70
2017,09,28,07,44,15.70
2017,09,28,07,45,15.60
2017,09,28,07,46,15.60
2017,09,28,07,47,15.50
2017,09,28,07,48,15.40
2017,09,28,07,49,15.30
2017,09,28,07,50,15.20
2017,09,28,07,51,15.20
2017,09,28,07,52,15.20
2017,09,28,07,53,15.10
2017,09,28,07,54,15.10
2017,09,28,07,55,15.10
2017,09,28,07,56,15.10
2017,09,28,07,57,15.00
2017,09,28,07,58,15.00
2017,09,28,07,59,15.00
2017,09,28,08,00,15.00
2017,09,28,08,01,15.00
2017,09,28,08,02,15.00
2017,09,28,08,03,15.00
2017,09,28,08,04,15.00
2017,09,28,08,05,15.00
2017,09,28,08,06,15.00
2017,09,28,08,07,15.00
2017,09,28,08,08,15.00
2017,09,28,08,09,15.00
2017,09,28,08,10,15.00
2017,09,28,08,11,15.10
2017,09,28,08,12,15.10
2017,09,28,08,13,15.10
2017,09,28,08,14,15.10
2017,09,28,08,15,15.10
2017,09,28,08,16,15.10
2017,09,28,08,17,15.10
2017,09,28,08,18,15.10
2017,09,28,08,19,15.10
2017,09,28,08,20,15.10
2017,09,28,08,21,15.10
2017,09,28,08,22,15.10
2017,09,28,08,23,15.10
2017,09,28,08,24,15.20
2017,09,28,08,25,15.20
2017,09,28,08,26,15.20
2017,09,28,08,27,15.20
2017,09,28,08,28,15.20
2017,09,28,08,29,15.30
2017,09,28,08,30,15.30
2017,09,28,08,31,15.30
2017,09,28,08,32,15.30
2017,09,28,08,33,15.40
2017,09,28,08,34,15.40
2017,09,28,08,35,15.50
2017,09,28,08,36,15.50
2017,09,28,08,37,15.60
2017,09,28,08,38,15.70
2017,09,28,08,39,15.80
2017,09,28,08,40,15.90
2017,09,28,08,41,16.00
2017,09,28,08,42,16.10
2017,09,28,08,43,16.20
2017,09,28,08,44,16.30
2017,09,28,08,45,16.30
2017,09,28,08,46,16.40
2017,09,28,08,47,16.40
2017,09,28,08,48,16.50
2017,09,28,08,49,16.60
2017,09,28,08,50,16.70
2017,09,28,08,51,16.80
2017,09,28,08,52,16.90
2017,09,28,08,53,17.00
2017,09,28,08,54,17.10
2017,09,28,08,55,17.10
2017,09,28,08,56,17.20
2017,09,28,08,57,17.30
2017,09,28,08,58,17.40
2017,09,28,08,59,17.50
2017,09,28,09,00,17.60
2017,09,28,09,01,17.70
2017,09,28,09,02,17.80
2017,09,28,09,03,17.80
2017,09,28,09,04,17.90
2017,09,28,09,05,17.90
2017,09,28,09,06,18.00
2017,09,28,09,07,18.10
2017,09,28,09,08,18.10
2017,09,28,09,09,18.20
2017,09,28,09,10,18.20
2017,09,28,09,11,18.30
2017,09,28,09,12,18.30
2017,09,28,09,13,18.30
2017,09,28,09,14,18.30
2017,09,28,09,15,18.40
2017,09,28,09,16,18.40
2017,09,28,09,17,18.40
2017,09,28,09,18,18.40
2017,09,28,09,19,18.50
2017,09,28,09,20,18.50
2017,09,28,09,21,18.60
2017,09,28,09,22,18.60
2017,09,28,09,23,18.60
2017,09,28,09,24,18.60
2017,09,28,09,25,18.60
2017,09,28,09,26,18.60
2017,09,28,09,27,18.60
2017,09,28,09,28,18.60
2017,09,28,09,29,18.60
2017,09,28,09,30,18.60
2017,09,28,09,31,18.60
2017,09,28,09,32,18.60
2017,09,28,09,33,18.60
2017,09,28,09,34,18.60
2017,09,28,09,35,18.60
2017,09,28,09,36,18.60
2017,09,28,09,37,18.50
2017,09,28,09,38,18.50
2017,09,28,09,39,18.50
2017,09,28,09,40,18.50
2017,09,28,09,41,18.50
2017,09,28,09,42,18.50
2017,09,28,09,43,18.50
2017,09,28,09,44,18.50
2017,09,28,09,45,18.50
2017,09,28,09,46,18.50
2017,09,28,09,47,18.50
2017,09,28,09,48,18.50
2017,09,28,09,49,18.50
2017,09,28,09,50,18.50
2017,09,28,09,51,18.50
2017,09,28,09,52,18.50
2017,09,28,09,53,18.60
2017,09,28,09,54,18.60
2017,09,28,09,55,18.60
2017,09,28,09,56,18.60
2017,09,28,09,57,18.70
2017,09,28,09,58,18.70
2017,09,28,09,59,18.70
2017,09,28,10,00,18.70
2017,09,28,10,01,18.70
2017,09,28,10,02,18.80
2017,09,28,10,03,18.80
2017,09,28,10,04,18.80
2017,09,28,10,05,18.80
2017,09,28,10,06,18.80
2017,09,28,10,07,18.90
2017,09,28,10,08,18.90
2017,09,28,10,09,18.90
2017,09,28,10,10,18.90
2017,09,28,10,11,19.00
2017,09,28,10,12,19.00
2017,09,28,10,13,19.00
2017,09,28,10,14,19.10
2017,09,28,10,15,19.10
2017,09,28,10,16,19.10
2017,09,28,10,17,19.10
2017,09,28,10,18,19.20
2017,09,28,10,19,19.20
2017,09,28,10,20,19.20
2017,09,28,10,21,19.30
2017,09,28,10,22,19.30
2017,09,28,10,23,19.30
2017,09,28,10,24,19.30
2017,09,28,10,25,19.30
2017,09,28,10,26,19.30
2017,09,28,10,27,19.30
2017,09,28,10,28,19.30
2017,09,28,10,29,19.30
2017,09,28,10,30,19.40
2017,09,28,10,31,19.40
2017,09,28,10,32,19.40
2017,09,28,10,33,19.50
2017,09,28,10,34,19.50
2017,09,28,10,35,19.60
2017,09,28,10,36,19.60
2017,09,28,10,37,19.60
2017,09,28,10,38,19.70
2017,09,28,10,39,19.70
2017,09,28,10,40,19.70
2017,09,28,10,41,19.80
2017,09,28,10,42,19.80
2017,09,28,10,43,19.80
2017,09,28,10,44,19.80
2017,09,28,10,45,19.80
2017,09,28,10,46,19.90
2017,09,28,10,47,19.90
2017,09,28,10,48,19.90
2017,09,28,10,49,19.90
2017,09,28,10,50,19.90
2017,09,28,10,51,20.00
2017,09,28,10,52,20.00
2017,09,28,10,53,20.10
2017,09,28,10,54,20.10
2017,09,28,10,55,20.10
2017,09,28,10,56,20.10
2017,09,28,10,57,20.10
2017,09,28,10,58,20.20
2017,09,28,10,59,20.20
2017,09,28,11,00,20.20
2017,09,28,11,01,20.20
2017,09,28,11,02,20.20
2017,09,28,11,03,20.20
2017,09,28,11,04,20.20
2017,09,28,11,05,20.20
2017,09,28,11,06,20.20
2017,09,28,11,07,20.30
2017,09,28,11,08,20.30
2017,09,28,11,09,20.30
2017,09,28,11,10,20.30
2017,09,28,11,11,20.40
2017,09,28,11,12,20.40
2017,09,28,11,13,20.40
2017,09,28,11,14,20.40
2017,09,28,11,15,20.50
2017,09,28,11,16,20.50
2017,09,28,11,17,20.60
2017,09,28,11,18,20.60
2017,09,28,11,19,20.70
2017,09,28,11,20,20.70
2017,09,28,11,21,20.70
2017,09,28,11,22,20.70
2017,09,28,11,23,20.70
2017,09,28,11,24,20.80
2017,09,28,11,25,20.80
2017,09,28,11,26,20.80
2017,09,28,11,27,20.90
2017,09,28,11,28,20.90
2017,09,28,11,29,20.90
2017,09,28,11,30,20.90
2017,09,28,11,31,20.90
2017,09,28,11,32,21.00
2017,09,28,11,33,21.00
2017,09,28,11,34,21.00
2017,09,28,11,35,21.00
2017,09,28,11,36,21.10
2017,09,28,11,37,21.10
2017,09,28,11,38,21.20
2017,09,28,11,39,21.20
2017,09,28,11,40,21.20
2017,09,28,11,41,21.20
2017,09,28,11,42,21.20
2017,09,28,11,43,21.30
2017,09,28,11,44,21.30
2017,09,28,11,45,21.30
2017,09,28,11,46,21.40
2017,09,28,11,47,21.40
2017,09,28,11,48,21.50
2017,09,28,11,49,21.50
2017,09,28,11,50,21.60
2017,09,28,11,51,21.60
2017,09,28,11,52,21.70
2017,09,28,11,53,21.70
2017,09,28,11,54,21.80
2017,09,28,11,55,21.80
2017,09,28,11,56,21.90
2017,09,28,11,57,21.90
2017,09,28,11,58,22.00
2017,09,28,11,59,22.00
2017,09,28,12,00,22.10
2017,09,28,12,01,22.10
2017,09,28,12,02,22.00
2017,09,28,12,03,21.90
2017,09,28,12,04,21.80
2017,09,28,12,05,21.80
2017,09,28,12,06,21.80
2017,09,28,12,07,21.80
2017,09,28,12,08,21.70
2017,09,28,12,09,21.70
2017,09,28,12,10,21.70
2017,09,28,12,11,21.70
2017,09,28,12,12,21.70
2017,09,28,12,13,21.70
2017,09,28,12,14,21.70
2017,09,28,12,15,21.80
2017,09,28,12,16,21.80
2017,09,28,12,17,21.80
2017,09,28,12,18,21.90
2017,09,28,12,19,21.90
2017,09,28,12,20,22.00
2017,09,28,12,21,22.00
2017,09,28,12,22,22.00
2017,09,28,12,23,22.00
2017,09,28,12,24,22.10
2017,09,28,12,25,22.10
2017,09,28,12,26,22.10
2017,09,28,12,27,22.10
2017,09,28,12,28,22.20
2017,09,28,12,29,22.20
2017,09,28,12,30,22.20
2017,09,28,12,31,22.20
2017,09,28,12,32,22.20
2017,09,28,12,33,22.30
2017,09,28,12,34,22.30
2017,09,28,12,35,22.30
2017,09,28,12,36,22.40
2017,09,28,12,37,22.40
2017,09,28,12,38,22.50
2017,09,28,12,39,22.60
2017,09,28,12,40,22.60
2017,09,28,12,41,22.60
2017,09,28,12,42,22.70
2017,09,28,12,43,22.70
2017,09,28,12,44,22.70
2017,09,28,12,45,22.70
2017,09,28,12,46,22.70
2017,09,28,12,47,22.70
2017,09,28,12,48,22.70
2017,09,28,12,49,22.70
2017,09,28,12,50,22.70
2017,09,28,12,51,22.70
2017,09,28,12,52,22.70
2017,09,28,12,53,22.70
2017,09,28,12,54,22.70
2017,09,28,12,55,22.80
2017,09,28,12,56,22.80
2017,09,28,12,57,22.80
2017,09,28,12,58,22.80
2017,09,28,12,59,22.80
2017,09,28,13,00,22.90
2017,09,28,13,01,22.90
2017,09,28,13,02,22.90
2017,09,28,13,03,22.90
2017,09,28,13,04,22.90
2017,09,28,13,05,22.90
2017,09,28,13,06,22.90
2017,09,28,13,07,22.90
2017,09,28,13,08,22.90
2017,09,28,13,09,22.90
2017,09,28,13,10,22.90
2017,09,28,13,11,22.80
2017,09,28,13,12,22.90
2017,09,28,13,13,22.90
2017,09,28,13,14,22.90
2017,09,28,13,15,22.90
2017,09,28,13,16,23.00
2017,09,28,13,17,23.00
2017,09,28,13,18,23.00
2017,09,28,13,19,23.10
2017,09,28,13,20,23.10
2017,09,28,13,21,23.10
2017,09,28,13,22,23.10
2017,09,28,13,23,23.20
2017,09,28,13,24,23.20
2017,09,28,13,25,23.20
2017,09,28,13,26,23.20
2017,09,28,13,27,23.20
2017,09,28,13,28,23.20
2017,09,28,13,29,23.20
2017,09,28,13,30,23.20
2017,09,28,13,31,23.20
2017,09,28,13,32,23.20
2017,09,28,13,33,23.20
2017,09,28,13,34,23.30
2017,09,28,13,35,23.30
2017,09,28,13,36,23.30
2017,09,28,13,37,23.40
2017,09,28,13,38,23.50
2017,09,28,13,39,23.50
2017,09,28,13,40,23.50
2017,09,28,13,41,23.50
2017,09,28,13,42,23.50
2017,09,28,13,43,23.50
2017,09,28,13,44,23.60
2017,09,28,13,45,23.60
2017,09,28,13,46,23.60
2017,09,28,13,47,23.70
2017,09,28,13,48,23.70
2017,09,28,13,49,23.70
2017,09,28,13,50,23.70
2017,09,28,13,51,23.70
2017,09,28,13,52,23.70
2017,09,28,13,53,23.70
2017,09,28,13,54,23.80
2017,09,28,13,55,23.80
2017,09,28,13,56,23.80
2017,09,28,13,57,23.80
2017,09,28,13,58,23.80
2017,09,28,13,59,23.90
2017,09,28,14,00,23.90
2017,09,28,14,01,23.90
2017,09,28,14,02,23.90
2017,09,28,14,03,23.90
2017,09,28,14,04,23.90
2017,09,28,14,05,24.00
2017,09,28,14,06,24.00
2017,09,28,14,07,24.00
2017,09,28,14,08,24.10
2017,09,28,14,09,24.10
2017,09,28,14,10,24.10
2017,09,28,14,11,24.10
2017,09,28,14,12,24.20
2017,09,28,14,13,24.20
2017,09,28,14,14,24.10
2017,09,28,14,15,23.80
2017,09,28,14,16,23.50
2017,09,28,14,17,23.10
2017,09,28,14,18,22.90
2017,09,28,14,19,22.60
2017,09,28,14,20,22.30
2017,09,28,14,21,22.00
2017,09,28,14,22,21.70
2017,09,28,14,23,21.50
2017,09,28,14,24,21.30
2017,09,28,14,25,21.10
2017,09,28,14,26,21.00
2017,09,28,14,27,20.90
2017,09,28,14,28,20.80
2017,09,28,14,29,20.80
2017,09,28,14,30,20.90
2017,09,28,14,31,20.90
2017,09,28,14,32,21.00
2017,09,28,14,33,21.10
2017,09,28,14,34,21.20
2017,09,28,14,35,21.30
2017,09,28,14,36,21.20
2017,09,28,14,37,21.00
2017,09,28,14,38,20.90
2017,09,28,14,39,20.90
2017,09,28,14,40,20.90
2017,09,28,14,41,20.90
2017,09,28,14,42,20.90
2017,09,28,14,43,20.80
2017,09,28,14,44,20.80
2017,09,28,14,45,20.70
2017,09,28,14,46,20.70
2017,09,28,14,47,20.70
2017,09,28,14,48,20.70
2017,09,28,14,49,20.80
2017,09,28,14,50,20.90
2017,09,28,14,51,20.90
2017,09,28,14,52,21.00
2017,09,28,14,53,21.10
2017,09,28,14,54,21.10
2017,09,28,14,55,21.10
2017,09,28,14,56,21.20
2017,09,28,14,57,21.20
2017,09,28,14,58,21.20
2017,09,28,14,59,21.20
2017,09,28,15,00,21.20
2017,09,28,15,01,21.30
2017,09,28,15,02,21.40
2017,09,28,15,03,21.40
2017,09,28,15,04,21.50
2017,09,28,15,05,21.60
2017,09,28,15,06,21.70
2017,09,28,15,07,21.80
2017,09,28,15,08,22.00
2017,09,28,15,09,22.10
2017,09,28,15,10,22.30
2017,09,28,15,11,22.40
2017,09,28,15,12,22.50
2017,09,28,15,13,22.70
2017,09,28,15,14,22.80
2017,09,28,15,15,22.90
2017,09,28,15,16,23.00
2017,09,28,15,17,23.00
2017,09,28,15,18,23.00
2017,09,28,15,19,22.80
2017,09,28,15,20,22.40
2017,09,28,15,21,22.00
2017,09,28,15,22,21.60
2017,09,28,15,23,21.40
2017,09,28,15,24,21.00
2017,09,28,15,25,20.70
2017,09,28,15,26,20.40
2017,09,28,15,27,20.20
2017,09,28,15,28,19.90
2017,09,28,15,29,19.80
2017,09,28,15,30,19.60
2017,09,28,15,31,19.40
2017,09,28,15,32,19.20
2017,09,28,15,33,19.10
2017,09,28,15,34,19.00
2017,09,28,15,35,18.90
2017,09,28,15,36,18.90
2017,09,28,15,37,18.80
2017,09,28,15,38,18.80
2017,09,28,15,39,18.90
2017,09,28,15,40,18.80
2017,09,28,15,41,18.80
2017,09,28,15,42,18.80
2017,09,28,15,43,18.80
2017,09,28,15,44,18.80
2017,09,28,15,45,18.80
2017,09,28,15,46,18.80
2017,09,28,15,47,18.70
2017,09,28,15,48,18.70
2017,09,28,15,49,18.60
2017,09,28,15,50,18.60
2017,09,28,15,51,18.50
2017,09,28,15,52,18.50
2017,09,28,15,53,18.50
2017,09,28,15,54,18.40
2017,09,28,15,55,18.40
2017,09,28,15,56,18.40
2017,09,28,15,57,18.40
2017,09,28,15,58,18.40
2017,09,28,15,59,18.50
2017,09,28,16,00,18.50
2017,09,28,16,01,18.50
2017,09,28,16,02,18.50
2017,09,28,16,03,18.50
2017,09,28,16,04,18.50
2017,09,28,16,05,18.50
2017,09,28,16,06,18.50
2017,09,28,16,07,18.50
2017,09,28,16,08,18.50
2017,09,28,16,09,18.40
2017,09,28,16,10,18.40
2017,09,28,16,11,18.40
2017,09,28,16,12,18.40
2017,09,28,16,13,18.40
2017,09,28,16,14,18.40
2017,09,28,16,15,18.40
2017,09,28,16,16,18.40
2017,09,28,16,17,18.50
2017,09,28,16,18,18.50
2017,09,28,16,19,18.60
2017,09,28,16,20,18.60
2017,09,28,16,21,18.70
2017,09,28,16,22,18.80
2017,09,28,16,23,18.80
2017,09,28,16,24,18.90
2017,09,28,16,25,18.90
2017,09,28,16,26,19.00
2017,09,28,16,27,19.00
2017,09,28,16,28,19.00
2017,09,28,16,29,19.10
2017,09,28,16,30,19.10
2017,09,28,16,31,19.10
2017,09,28,16,32,19.10
2017,09,28,16,33,19.10
2017,09,28,16,34,19.10
2017,09,28,16,35,19.10
2017,09,28,16,36,19.00
2017,09,28,16,37,19.00
2017,09,28,16,38,19.00
2017,09,28,16,39,19.00
2017,09,28,16,40,19.00
2017,09,28,16,41,18.90
2017,09,28,16,42,18.90
2017,09,28,16,43,18.90
2017,09,28,16,44,18.90
2017,09,28,16,45,18.90
2017,09,28,16,46,19.00
2017,09,28,16,47,19.00
2017,09,28,16,48,19.00
2017,09,28,16,49,19.00
2017,09,28,16,50,19.10
2017,09,28,16,51,19.10
2017,09,28,16,52,19.10
2017,09,28,16,53,19.10
2017,09,28,16,54,19.20
2017,09,28,16,55,19.20
2017,09,28,16,56,19.20
2017,09,28,16,57,19.30
2017,09,28,16,58,19.30
2017,09,28,16,59,19.40
2017,09,28,17,00,19.40
2017,09,28,17,01,19.50
2017,09,28,17,02,19.50
2017,09,28,17,03,19.60
2017,09,28,17,04,19.60
2017,09,28,17,05,19.60
2017,09,28,17,06,19.60
2017,09,28,17,07,19.60
2017,09,28,17,08,19.60
2017,09,28,17,09,19.60
2017,09,28,17,10,19.60
2017,09,28,17,11,19.60
2017,09,28,17,12,19.60
2017,09,28,17,13,19.60
2017,09,28,17,14,19.50
2017,09,28,17,15,19.50
2017,09,28,17,16,19.40
2017,09,28,17,17,19.40
2017,09,28,17,18,19.40
2017,09,28,17,19,19.40